owner,sensor,date,latitude,longitude,vertical_datum,direction_of_sea_water_velocity,sea_water_speed,upward_sea_water_velocity,qcFlag 
TABS,ioos:station:wmo:42047:1,2016-01-01T00:00:00Z,27.8966,-93.5973,2.0,275.6558219,11.36532006,-99999.0,'11111222,11111222,99999999' 
TABS,ioos:station:wmo:42047:1,2016-01-01T00:30:00Z,27.8966,-93.5973,2.0,289.0596966,12.18814178,-99999.0,'11111222,11111222,99999999' 
TABS,ioos:station:wmo:42047:1,2016-01-01T01:00:00Z,27.8966,-93.5973,2.0,298.3384942,11.41835803,-99999.0,'11111222,11111222,99999999' 
TABS,ioos:station:wmo:42047:1,2016-01-01T01:30:00Z,27.8966,-93.5973,2.0,290.7794536,18.94208278,-99999.0,'11111222,11111222,99999999' 
TABS,ioos:station:wmo:42047:1,2016-01-01T02:00:00Z,27.8966,-93.5973,2.0,284.3851277,12.76003527,-99999.0,'11111222,11111222,99999999' 
TABS,ioos:station:wmo:42047:1,2016-01-01T02:30:00Z,27.8966,-93.5973,2.0,280.1943192,7.853979883,-99999.0,'11133222,11111222,99999999' 
TABS,ioos:station:wmo:42047:1,2016-01-01T03:00:00Z,27.8966,-93.5973,2.0,256.2097409,10.15263513,-99999.0,'11111222,11111222,99999999' 
TABS,ioos:station:wmo:42047:1,2016-01-01T03:30:00Z,27.8966,-93.5973,2.0,279.4880357,11.16269233,-99999.0,'11111222,11111222,99999999' 
TABS,ioos:station:wmo:42047:1,2016-01-01T04:00:00Z,27.8966,-93.5973,2.0,265.0382668,11.79418925,-99999.0,'11111222,11111222,99999999' 
TABS,ioos:station:wmo:42047:1,2016-01-01T04:30:00Z,27.8966,-93.5973,2.0,273.3735844,10.02737254,-99999.0,'11111222,11111222,99999999' 
TABS,ioos:station:wmo:42047:1,2016-01-01T05:00:00Z,27.8966,-93.5973,2.0,255.9884761,5.534663495,-99999.0,'11133222,11111222,99999999' 
TABS,ioos:station:wmo:42047:1,2016-01-01T05:30:00Z,27.8966,-93.5973,2.0,264.5393793,15.02819018,-99999.0,'11111222,11111222,99999999' 
TABS,ioos:station:wmo:42047:1,2016-01-01T06:00:00Z,27.8966,-93.5973,2.0,269.1913124,12.05119911,-99999.0,'11111222,11111222,99999999' 
TABS,ioos:station:wmo:42047:1,2016-01-01T06:30:00Z,27.8966,-93.5973,2.0,275.4066204,12.73665576,-99999.0,'11111222,11111222,99999999' 
TABS,ioos:station:wmo:42047:1,2016-01-01T07:00:00Z,27.8966,-93.5973,2.0,282.7494314,12.41610648,-99999.0,'11111222,11111222,99999999' 
TABS,ioos:station:wmo:42047:1,2016-01-01T07:30:00Z,27.8966,-93.5973,2.0,260.1459341,10.10912954,-99999.0,'11111222,11111222,99999999' 
TABS,ioos:station:wmo:42047:1,2016-01-01T08:00:00Z,27.8966,-93.5973,2.0,269.0104,13.90207179,-99999.0,'11111222,11111222,99999999' 
TABS,ioos:station:wmo:42047:1,2016-01-01T08:30:00Z,27.8966,-93.5973,2.0,289.0974075,11.76762083,-99999.0,'11111222,11111222,99999999' 
TABS,ioos:station:wmo:42047:1,2016-01-01T09:00:00Z,27.8966,-93.5973,2.0,266.7956712,10.55650037,-99999.0,'11111222,11111222,99999999' 
TABS,ioos:station:wmo:42047:1,2016-01-01T09:30:00Z,27.8966,-93.5973,2.0,297.9847872,9.56883483,-99999.0,'11133222,11111222,99999999' 
TABS,ioos:station:wmo:42047:1,2016-01-01T10:00:00Z,27.8966,-93.5973,2.0,274.3146363,11.96389987,-99999.0,'11111222,11111222,99999999' 
TABS,ioos:station:wmo:42047:1,2016-01-01T10:30:00Z,27.8966,-93.5973,2.0,281.7988929,8.509788482,-99999.0,'11133222,11111222,99999999' 
TABS,ioos:station:wmo:42047:1,2016-01-01T11:00:00Z,27.8966,-93.5973,2.0,281.3103269,8.872293954,-99999.0,'11133222,11111222,99999999' 
TABS,ioos:station:wmo:42047:1,2016-01-01T11:30:00Z,27.8966,-93.5973,2.0,272.5747704,6.456516088,-99999.0,'11133222,11111222,99999999' 
TABS,ioos:station:wmo:42047:1,2016-01-01T12:00:00Z,27.8966,-93.5973,2.0,346.6277611,7.955702357,-99999.0,'11133222,11111222,99999999' 
TABS,ioos:station:wmo:42047:1,2016-01-01T12:30:00Z,27.8966,-93.5973,2.0,269.6098188,1.470034013,-99999.0,'11133222,11111222,99999999' 
TABS,ioos:station:wmo:42047:1,2016-01-01T13:00:00Z,27.8966,-93.5973,2.0,302.0344922,2.111516043,-99999.0,'11133222,11111222,99999999' 
TABS,ioos:station:wmo:42047:1,2016-01-01T13:30:00Z,27.8966,-93.5973,2.0,332.9496767,2.63865496,-99999.0,'11133222,11111222,99999999' 
TABS,ioos:station:wmo:42047:1,2016-01-01T14:00:00Z,27.8966,-93.5973,2.0,294.717804,1.387083271,-99999.0,'11133222,11111222,99999999' 
TABS,ioos:station:wmo:42047:1,2016-01-01T14:30:00Z,27.8966,-93.5973,2.0,346.7388164,6.277395957,-99999.0,'11133222,11111222,99999999' 
TABS,ioos:station:wmo:42047:1,2016-01-01T15:00:00Z,27.8966,-93.5973,2.0,130.8452804,5.856090846,-99999.0,'11133222,11111222,99999999' 
TABS,ioos:station:wmo:42047:1,2016-01-01T15:30:00Z,27.8966,-93.5973,2.0,216.3689027,1.602061172,-99999.0,'11133222,11111222,99999999' 
TABS,ioos:station:wmo:42047:1,2016-01-01T16:00:00Z,27.8966,-93.5973,2.0,199.7067958,8.68891823,-99999.0,'11133222,11111222,99999999' 
TABS,ioos:station:wmo:42047:1,2016-01-01T16:30:00Z,27.8966,-93.5973,2.0,231.8970957,3.532817572,-99999.0,'11133222,11111222,99999999' 
TABS,ioos:station:wmo:42047:1,2016-01-01T17:00:00Z,27.8966,-93.5973,2.0,224.0346116,4.618062364,-99999.0,'11133222,11111222,99999999' 
TABS,ioos:station:wmo:42047:1,2016-01-01T17:30:00Z,27.8966,-93.5973,2.0,209.3506903,9.201114063,-99999.0,'11133222,11111222,99999999' 
TABS,ioos:station:wmo:42047:1,2016-01-01T18:00:00Z,27.8966,-93.5973,2.0,206.9729972,10.67078722,-99999.0,'11111222,11111222,99999999' 
TABS,ioos:station:wmo:42047:1,2016-01-01T18:30:00Z,27.8966,-93.5973,2.0,194.2900812,16.40769636,-99999.0,'11111222,11111222,99999999' 
TABS,ioos:station:wmo:42047:1,2016-01-01T19:00:00Z,27.8966,-93.5973,2.0,200.4826632,10.08778469,-99999.0,'11111222,11111222,99999999' 
TABS,ioos:station:wmo:42047:1,2016-01-01T19:30:00Z,27.8966,-93.5973,2.0,218.601354,6.154811126,-99999.0,'11133222,11111222,99999999' 
TABS,ioos:station:wmo:42047:1,2016-01-01T20:00:00Z,27.8966,-93.5973,2.0,188.0816036,8.393360471,-99999.0,'11133222,11111222,99999999' 
TABS,ioos:station:wmo:42047:1,2016-01-01T20:30:00Z,27.8966,-93.5973,2.0,206.3106976,10.08476574,-99999.0,'11111222,11111222,99999999' 
TABS,ioos:station:wmo:42047:1,2016-01-01T21:00:00Z,27.8966,-93.5973,2.0,252.06967,7.893351633,-99999.0,'11133222,11111222,99999999' 
TABS,ioos:station:wmo:42047:1,2016-01-01T21:30:00Z,27.8966,-93.5973,2.0,223.280426,4.478001787,-99999.0,'11133222,11111222,99999999' 
TABS,ioos:station:wmo:42047:1,2016-01-01T22:00:00Z,27.8966,-93.5973,2.0,216.0000673,9.357077535,-99999.0,'11133222,11111222,99999999' 
TABS,ioos:station:wmo:42047:1,2016-01-01T22:30:00Z,27.8966,-93.5973,2.0,221.0847601,13.36013847,-99999.0,'11111222,11111222,99999999' 
TABS,ioos:station:wmo:42047:1,2016-01-01T23:00:00Z,27.8966,-93.5973,2.0,240.5133752,10.44259067,-99999.0,'11111222,11111222,99999999' 
TABS,ioos:station:wmo:42047:1,2016-01-01T23:30:00Z,27.8966,-93.5973,2.0,234.9761336,11.91818778,-99999.0,'11111222,11111222,99999999' 
TABS,ioos:station:wmo:42047:1,2016-01-02T00:00:00Z,27.8966,-93.5973,2.0,215.8779579,7.627142322,-99999.0,'11133222,11111222,99999999' 
TABS,ioos:station:wmo:42047:1,2016-01-02T00:30:00Z,27.8966,-93.5973,2.0,248.1234221,12.80184752,-99999.0,'11111222,11111222,99999999' 
TABS,ioos:station:wmo:42047:1,2016-01-02T01:00:00Z,27.8966,-93.5973,2.0,236.2327866,14.48323514,-99999.0,'11111222,11111222,99999999' 
TABS,ioos:station:wmo:42047:1,2016-01-02T01:30:00Z,27.8966,-93.5973,2.0,262.9711993,9.561851285,-99999.0,'11133222,11111222,99999999' 
TABS,ioos:station:wmo:42047:1,2016-01-02T02:00:00Z,27.8966,-93.5973,2.0,221.4485777,18.0375719,-99999.0,'11111222,11111222,99999999' 
TABS,ioos:station:wmo:42047:1,2016-01-02T02:30:00Z,27.8966,-93.5973,2.0,206.6806052,6.636663318,-99999.0,'11133222,11111222,99999999' 
TABS,ioos:station:wmo:42047:1,2016-01-02T03:00:00Z,27.8966,-93.5973,2.0,239.5129501,16.47815524,-99999.0,'11111222,11111222,99999999' 
TABS,ioos:station:wmo:42047:1,2016-01-02T03:30:00Z,27.8966,-93.5973,2.0,225.3533566,9.164278477,-99999.0,'11133222,11111222,99999999' 
TABS,ioos:station:wmo:42047:1,2016-01-02T04:00:00Z,27.8966,-93.5973,2.0,214.8577934,11.56512862,-99999.0,'11111222,11111222,99999999' 
TABS,ioos:station:wmo:42047:1,2016-01-02T04:30:00Z,27.8966,-93.5973,2.0,263.6594022,8.874277435,-99999.0,'11133222,11111222,99999999' 
TABS,ioos:station:wmo:42047:1,2016-01-02T05:00:00Z,27.8966,-93.5973,2.0,265.7516436,12.82523294,-99999.0,'11111222,11111222,99999999' 
TABS,ioos:station:wmo:42047:1,2016-01-02T05:30:00Z,27.8966,-93.5973,2.0,275.1948377,3.644969136,-99999.0,'11133222,11111222,99999999' 
TABS,ioos:station:wmo:42047:1,2016-01-02T06:00:00Z,27.8966,-93.5973,2.0,272.4869687,8.297812965,-99999.0,'11133222,11111222,99999999' 
TABS,ioos:station:wmo:42047:1,2016-01-02T06:30:00Z,27.8966,-93.5973,2.0,295.7911916,6.619365529,-99999.0,'11133222,11111222,99999999' 
TABS,ioos:station:wmo:42047:1,2016-01-02T07:00:00Z,27.8966,-93.5973,2.0,244.9701738,5.507177135,-99999.0,'11133222,11111222,99999999' 
TABS,ioos:station:wmo:42047:1,2016-01-02T07:30:00Z,27.8966,-93.5973,2.0,290.7523836,2.737608445,-99999.0,'11133222,11111222,99999999' 
TABS,ioos:station:wmo:42047:1,2016-01-02T08:00:00Z,27.8966,-93.5973,2.0,284.3971657,4.625245939,-99999.0,'11133222,11111222,99999999' 
TABS,ioos:station:wmo:42047:1,2016-01-02T08:30:00Z,27.8966,-93.5973,2.0,259.6522735,3.61885341,-99999.0,'11133222,11111222,99999999' 
TABS,ioos:station:wmo:42047:1,2016-01-02T09:00:00Z,27.8966,-93.5973,2.0,252.2259788,3.013851357,-99999.0,'11133222,11111222,99999999' 
TABS,ioos:station:wmo:42047:1,2016-01-02T09:30:00Z,27.8966,-93.5973,2.0,278.0745333,4.343051922,-99999.0,'11133222,11111222,99999999' 
TABS,ioos:station:wmo:42047:1,2016-01-02T10:00:00Z,27.8966,-93.5973,2.0,335.8324545,5.666683333,-99999.0,'11133222,11111222,99999999' 
TABS,ioos:station:wmo:42047:1,2016-01-02T10:30:00Z,27.8966,-93.5973,2.0,326.7937178,3.286715686,-99999.0,'11133222,11111222,99999999' 
TABS,ioos:station:wmo:42047:1,2016-01-02T11:00:00Z,27.8966,-93.5973,2.0,327.6305022,6.500038461,-99999.0,'11133222,11111222,99999999' 
TABS,ioos:station:wmo:42047:1,2016-01-02T11:30:00Z,27.8966,-93.5973,2.0,293.2949297,3.919502519,-99999.0,'11133222,11111222,99999999' 
TABS,ioos:station:wmo:42047:1,2016-01-02T12:00:00Z,27.8966,-93.5973,2.0,294.6930423,5.338108279,-99999.0,'11133222,11111222,99999999' 
TABS,ioos:station:wmo:42047:1,2016-01-02T12:30:00Z,27.8966,-93.5973,2.0,286.3349607,6.471205452,-99999.0,'11133222,11111222,99999999' 
TABS,ioos:station:wmo:42047:1,2016-01-02T13:00:00Z,27.8966,-93.5973,2.0,352.3587508,6.467433803,-99999.0,'11133222,11111222,99999999' 
TABS,ioos:station:wmo:42047:1,2016-01-02T13:30:00Z,27.8966,-93.5973,2.0,352.1341605,3.068876016,-99999.0,'11133222,11111222,99999999' 
TABS,ioos:station:wmo:42047:1,2016-01-02T14:00:00Z,27.8966,-93.5973,2.0,297.5940886,3.238348344,-99999.0,'11133222,11111222,99999999' 
TABS,ioos:station:wmo:42047:1,2016-01-02T14:30:00Z,27.8966,-93.5973,2.0,337.8908138,1.726991604,-99999.0,'11133222,11111222,99999999' 
TABS,ioos:station:wmo:42047:1,2016-01-02T15:00:00Z,27.8966,-93.5973,2.0,290.5053524,1.313202193,-99999.0,'11133222,11111222,99999999' 
TABS,ioos:station:wmo:42047:1,2016-01-02T15:30:00Z,27.8966,-93.5973,2.0,307.6217971,1.982170527,-99999.0,'11133222,11111222,99999999' 
TABS,ioos:station:wmo:42047:1,2016-01-02T16:00:00Z,27.8966,-93.5973,2.0,265.3327316,2.458149711,-99999.0,'11133222,11111222,99999999' 
TABS,ioos:station:wmo:42047:1,2016-01-02T16:30:00Z,27.8966,-93.5973,2.0,259.7427832,2.134104027,-99999.0,'11133222,11111222,99999999' 
TABS,ioos:station:wmo:42047:1,2016-01-02T17:00:00Z,27.8966,-93.5973,2.0,315.4562396,5.331753933,-99999.0,'11133222,11111222,99999999' 
TABS,ioos:station:wmo:42047:1,2016-01-02T17:30:00Z,27.8966,-93.5973,2.0,274.5057171,8.656748812,-99999.0,'11133222,11111222,99999999' 
TABS,ioos:station:wmo:42047:1,2016-01-02T18:00:00Z,27.8966,-93.5973,2.0,262.8524746,3.21498056,-99999.0,'11133222,11111222,99999999' 
TABS,ioos:station:wmo:42047:1,2016-01-02T18:30:00Z,27.8966,-93.5973,2.0,229.8774288,6.48644741,-99999.0,'11133222,11111222,99999999' 
TABS,ioos:station:wmo:42047:1,2016-01-02T19:00:00Z,27.8966,-93.5973,2.0,265.2959754,1.58533908,-99999.0,'11133222,11111222,99999999' 
TABS,ioos:station:wmo:42047:1,2016-01-02T19:30:00Z,27.8966,-93.5973,2.0,215.0516337,5.484760706,-99999.0,'11133222,11111222,99999999' 
TABS,ioos:station:wmo:42047:1,2016-01-02T20:00:00Z,27.8966,-93.5973,2.0,296.8344016,3.810301825,-99999.0,'11133222,11111222,99999999' 
TABS,ioos:station:wmo:42047:1,2016-01-02T20:30:00Z,27.8966,-93.5973,2.0,197.0859763,5.105330548,-99999.0,'11133222,11111222,99999999' 
TABS,ioos:station:wmo:42047:1,2016-01-02T21:00:00Z,27.8966,-93.5973,2.0,241.8264449,3.346475758,-99999.0,'11133222,11111222,99999999' 
TABS,ioos:station:wmo:42047:1,2016-01-02T21:30:00Z,27.8966,-93.5973,2.0,299.5391341,4.137825516,-99999.0,'11133222,11111222,99999999' 
TABS,ioos:station:wmo:42047:1,2016-01-02T22:00:00Z,27.8966,-93.5973,2.0,333.7683319,2.307661154,-99999.0,'11133222,11111222,99999999' 
TABS,ioos:station:wmo:42047:1,2016-01-02T22:30:00Z,27.8966,-93.5973,2.0,251.7985318,3.873822402,-99999.0,'11133222,11111222,99999999' 
TABS,ioos:station:wmo:42047:1,2016-01-02T23:00:00Z,27.8966,-93.5973,2.0,288.0176258,5.205247352,-99999.0,'11133222,11111222,99999999' 
TABS,ioos:station:wmo:42047:1,2016-01-02T23:30:00Z,27.8966,-93.5973,2.0,275.9829239,5.660830328,-99999.0,'11133222,11111222,99999999' 
TABS,ioos:station:wmo:42047:1,2016-01-03T00:00:00Z,27.8966,-93.5973,2.0,302.8871312,6.132813384,-99999.0,'11133222,11111222,99999999' 
TABS,ioos:station:wmo:42047:1,2016-01-03T00:30:00Z,27.8966,-93.5973,2.0,264.7126506,6.728625417,-99999.0,'11133222,11111222,99999999' 
TABS,ioos:station:wmo:42047:1,2016-01-03T01:00:00Z,27.8966,-93.5973,2.0,282.4124813,9.584007513,-99999.0,'11133222,11111222,99999999' 
TABS,ioos:station:wmo:42047:1,2016-01-03T01:30:00Z,27.8966,-93.5973,2.0,282.151846,4.940698331,-99999.0,'11133222,11111222,99999999' 
TABS,ioos:station:wmo:42047:1,2016-01-03T02:00:00Z,27.8966,-93.5973,2.0,250.1771609,4.570831434,-99999.0,'11133222,11111222,99999999' 
TABS,ioos:station:wmo:42047:1,2016-01-03T02:30:00Z,27.8966,-93.5973,2.0,292.4447028,7.281572632,-99999.0,'11133222,11111222,99999999' 
TABS,ioos:station:wmo:42047:1,2016-01-03T03:00:00Z,27.8966,-93.5973,2.0,305.9587267,8.549081822,-99999.0,'11133222,11111222,99999999' 
TABS,ioos:station:wmo:42047:1,2016-01-03T03:30:00Z,27.8966,-93.5973,2.0,282.433103,8.407151717,-99999.0,'11133222,11111222,99999999' 
TABS,ioos:station:wmo:42047:1,2016-01-03T04:00:00Z,27.8966,-93.5973,2.0,238.154493,5.68585086,-99999.0,'11133222,11111222,99999999' 
TABS,ioos:station:wmo:42047:1,2016-01-03T04:30:00Z,27.8966,-93.5973,2.0,271.3752525,7.502159689,-99999.0,'11133222,11111222,99999999' 
TABS,ioos:station:wmo:42047:1,2016-01-03T05:00:00Z,27.8966,-93.5973,2.0,292.9260663,6.340859563,-99999.0,'11133222,11111222,99999999' 
TABS,ioos:station:wmo:42047:1,2016-01-03T05:30:00Z,27.8966,-93.5973,2.0,287.983642,5.214757904,-99999.0,'11133222,11111222,99999999' 
TABS,ioos:station:wmo:42047:1,2016-01-03T06:00:00Z,27.8966,-93.5973,2.0,275.2342703,5.261938806,-99999.0,'11133222,11111222,99999999' 
TABS,ioos:station:wmo:42047:1,2016-01-03T06:30:00Z,27.8966,-93.5973,2.0,288.5415279,6.824206914,-99999.0,'11133222,11111222,99999999' 
TABS,ioos:station:wmo:42047:1,2016-01-03T07:00:00Z,27.8966,-93.5973,2.0,263.0438839,5.037072563,-99999.0,'11133222,11111222,99999999' 
TABS,ioos:station:wmo:42047:1,2016-01-03T07:30:00Z,27.8966,-93.5973,2.0,300.0187181,4.157691667,-99999.0,'11133222,11111222,99999999' 
TABS,ioos:station:wmo:42047:1,2016-01-03T08:00:00Z,27.8966,-93.5973,2.0,294.6239281,3.696106059,-99999.0,'11133222,11111222,99999999' 
TABS,ioos:station:wmo:42047:1,2016-01-03T08:30:00Z,27.8966,-93.5973,2.0,278.4593135,1.97144617,-99999.0,'11133222,11111222,99999999' 
TABS,ioos:station:wmo:42047:1,2016-01-03T09:00:00Z,27.8966,-93.5973,2.0,290.5564181,1.110720487,-99999.0,'11133222,11111222,99999999' 
TABS,ioos:station:wmo:42047:1,2016-01-03T09:30:00Z,27.8966,-93.5973,2.0,234.52433,1.068316433,-99999.0,'11133222,11111222,99999999' 
TABS,ioos:station:wmo:42047:1,2016-01-03T10:00:00Z,27.8966,-93.5973,2.0,239.6205241,5.042320894,-99999.0,'11133222,11111222,99999999' 
TABS,ioos:station:wmo:42047:1,2016-01-03T10:30:00Z,27.8966,-93.5973,2.0,209.7446013,3.789261142,-99999.0,'11133222,11111222,99999999' 
TABS,ioos:station:wmo:42047:1,2016-01-03T11:00:00Z,27.8966,-93.5973,2.0,186.5160935,4.670171303,-99999.0,'11133222,11111222,99999999' 
TABS,ioos:station:wmo:42047:1,2016-01-03T11:30:00Z,27.8966,-93.5973,2.0,131.633442,0.361247837,-99999.0,'11133222,11111222,99999999' 
TABS,ioos:station:wmo:42047:1,2016-01-03T12:00:00Z,27.8966,-93.5973,2.0,158.2437599,2.347189809,-99999.0,'11133222,11111222,99999999' 
TABS,ioos:station:wmo:42047:1,2016-01-03T12:30:00Z,27.8966,-93.5973,2.0,20.98505922,0.781856764,-99999.0,'11133222,11111222,99999999' 
TABS,ioos:station:wmo:42047:1,2016-01-03T13:00:00Z,27.8966,-93.5973,2.0,243.9242845,0.523259018,-99999.0,'11133222,11111222,99999999' 
TABS,ioos:station:wmo:42047:1,2016-01-03T13:30:00Z,27.8966,-93.5973,2.0,140.4621245,4.382750278,-99999.0,'11133222,11111222,99999999' 
TABS,ioos:station:wmo:42047:1,2016-01-03T14:00:00Z,27.8966,-93.5973,2.0,236.6332911,2.454587542,-99999.0,'11133222,11111222,99999999' 
TABS,ioos:station:wmo:42047:1,2016-01-03T14:30:00Z,27.8966,-93.5973,2.0,192.5072049,2.909037642,-99999.0,'11133222,11111222,99999999' 
TABS,ioos:station:wmo:42047:1,2016-01-03T15:00:00Z,27.8966,-93.5973,2.0,159.9883375,5.172281895,-99999.0,'11133222,11111222,99999999' 
TABS,ioos:station:wmo:42047:1,2016-01-03T15:30:00Z,27.8966,-93.5973,2.0,175.9856232,1.714205355,-99999.0,'11133222,11111222,99999999' 
TABS,ioos:station:wmo:42047:1,2016-01-03T16:00:00Z,27.8966,-93.5973,2.0,136.6196485,5.503489802,-99999.0,'11133222,11111222,99999999' 
TABS,ioos:station:wmo:42047:1,2016-01-03T16:30:00Z,27.8966,-93.5973,2.0,228.9905881,1.523975065,-99999.0,'11133222,11111222,99999999' 
TABS,ioos:station:wmo:42047:1,2016-01-03T17:00:00Z,27.8966,-93.5973,2.0,140.5577492,3.431457416,-99999.0,'11133222,11111222,99999999' 
TABS,ioos:station:wmo:42047:1,2016-01-03T17:30:00Z,27.8966,-93.5973,2.0,166.9795732,6.702313034,-99999.0,'11133222,11111222,99999999' 
TABS,ioos:station:wmo:42047:1,2016-01-03T18:00:00Z,27.8966,-93.5973,2.0,145.3387811,6.382742357,-99999.0,'11133222,11111222,99999999' 
TABS,ioos:station:wmo:42047:1,2016-01-03T18:30:00Z,27.8966,-93.5973,2.0,161.1192861,7.725677964,-99999.0,'11133222,11111222,99999999' 
TABS,ioos:station:wmo:42047:1,2016-01-03T19:00:00Z,27.8966,-93.5973,2.0,146.5679933,6.770184636,-99999.0,'11133222,11111222,99999999' 
TABS,ioos:station:wmo:42047:1,2016-01-03T19:30:00Z,27.8966,-93.5973,2.0,133.1092687,3.643583401,-99999.0,'11133222,11111222,99999999' 
TABS,ioos:station:wmo:42047:1,2016-01-03T20:00:00Z,27.8966,-93.5973,2.0,137.20466,7.168298264,-99999.0,'11133222,11111222,99999999' 
TABS,ioos:station:wmo:42047:1,2016-01-03T20:30:00Z,27.8966,-93.5973,2.0,131.9273317,7.123734975,-99999.0,'11133222,11111222,99999999' 
TABS,ioos:station:wmo:42047:1,2016-01-03T21:00:00Z,27.8966,-93.5973,2.0,135.8723499,5.572647486,-99999.0,'11133222,11111222,99999999' 
TABS,ioos:station:wmo:42047:1,2016-01-03T21:30:00Z,27.8966,-93.5973,2.0,98.19942052,3.505837988,-99999.0,'11133222,11111222,99999999' 
TABS,ioos:station:wmo:42047:1,2016-01-03T22:00:00Z,27.8966,-93.5973,2.0,126.5988842,9.728108758,-99999.0,'11133222,11111222,99999999' 
TABS,ioos:station:wmo:42047:1,2016-01-03T22:30:00Z,27.8966,-93.5973,2.0,127.9200453,5.56493486,-99999.0,'11133222,11111222,99999999' 
TABS,ioos:station:wmo:42047:1,2016-01-03T23:00:00Z,27.8966,-93.5973,2.0,155.9278397,3.187177435,-99999.0,'11133222,11111222,99999999' 
TABS,ioos:station:wmo:42047:1,2016-01-03T23:30:00Z,27.8966,-93.5973,2.0,152.686579,4.79453856,-99999.0,'11133222,11111222,99999999' 
TABS,ioos:station:wmo:42047:1,2016-01-04T00:00:00Z,27.8966,-93.5973,2.0,106.1306608,6.370816274,-99999.0,'11133222,11111222,99999999' 
TABS,ioos:station:wmo:42047:1,2016-01-04T00:30:00Z,27.8966,-93.5973,2.0,143.2479049,6.802014408,-99999.0,'11133222,11111222,99999999' 
TABS,ioos:station:wmo:42047:1,2016-01-04T01:00:00Z,27.8966,-93.5973,2.0,115.2754686,6.557812135,-99999.0,'11133222,11111222,99999999' 
TABS,ioos:station:wmo:42047:1,2016-01-04T01:30:00Z,27.8966,-93.5973,2.0,96.40892916,10.12326528,-99999.0,'11111222,11111222,99999999' 
TABS,ioos:station:wmo:42047:1,2016-01-04T02:00:00Z,27.8966,-93.5973,2.0,107.3004867,6.389053138,-99999.0,'11133222,11111222,99999999' 
TABS,ioos:station:wmo:42047:1,2016-01-04T02:30:00Z,27.8966,-93.5973,2.0,101.5921483,5.971808771,-99999.0,'11133222,11111222,99999999' 
TABS,ioos:station:wmo:42047:1,2016-01-04T03:00:00Z,27.8966,-93.5973,2.0,125.212714,5.740400683,-99999.0,'11133222,11111222,99999999' 
TABS,ioos:station:wmo:42047:1,2016-01-04T03:30:00Z,27.8966,-93.5973,2.0,118.8107264,5.249847617,-99999.0,'11133222,11111222,99999999' 
TABS,ioos:station:wmo:42047:1,2016-01-04T04:00:00Z,27.8966,-93.5973,2.0,127.8568606,5.572826931,-99999.0,'11133222,11111222,99999999' 
TABS,ioos:station:wmo:42047:1,2016-01-04T04:30:00Z,27.8966,-93.5973,2.0,122.7956903,5.686369668,-99999.0,'11133222,11111222,99999999' 
TABS,ioos:station:wmo:42047:1,2016-01-04T05:00:00Z,27.8966,-93.5973,2.0,142.698081,10.08228645,-99999.0,'11111222,11111222,99999999' 
TABS,ioos:station:wmo:42047:1,2016-01-04T05:30:00Z,27.8966,-93.5973,2.0,144.33542,9.982209174,-99999.0,'11133222,11111222,99999999' 
TABS,ioos:station:wmo:42047:1,2016-01-04T06:00:00Z,27.8966,-93.5973,2.0,128.5729939,12.38147003,-99999.0,'11111222,11111222,99999999' 
TABS,ioos:station:wmo:42047:1,2016-01-04T06:30:00Z,27.8966,-93.5973,2.0,137.9031683,10.88927913,-99999.0,'11111222,11111222,99999999' 
TABS,ioos:station:wmo:42047:1,2016-01-04T07:00:00Z,27.8966,-93.5973,2.0,141.1212479,7.360523079,-99999.0,'11133222,11111222,99999999' 
TABS,ioos:station:wmo:42047:1,2016-01-04T07:30:00Z,27.8966,-93.5973,2.0,176.3783133,3.957903485,-99999.0,'11133222,11111222,99999999' 
TABS,ioos:station:wmo:42047:1,2016-01-04T08:00:00Z,27.8966,-93.5973,2.0,165.5998019,3.820013089,-99999.0,'11133222,11111222,99999999' 
TABS,ioos:station:wmo:42047:1,2016-01-04T08:30:00Z,27.8966,-93.5973,2.0,143.424723,6.998092597,-99999.0,'11133222,11111222,99999999' 
TABS,ioos:station:wmo:42047:1,2016-01-04T09:00:00Z,27.8966,-93.5973,2.0,136.8169403,5.129103235,-99999.0,'11133222,11111222,99999999' 
TABS,ioos:station:wmo:42047:1,2016-01-04T09:30:00Z,27.8966,-93.5973,2.0,163.7895359,5.050801917,-99999.0,'11133222,11111222,99999999' 
TABS,ioos:station:wmo:42047:1,2016-01-04T10:00:00Z,27.8966,-93.5973,2.0,155.8458246,6.378440248,-99999.0,'11133222,11111222,99999999' 
TABS,ioos:station:wmo:42047:1,2016-01-04T10:30:00Z,27.8966,-93.5973,2.0,96.66005076,3.362692374,-99999.0,'11133222,11111222,99999999' 
TABS,ioos:station:wmo:42047:1,2016-01-04T11:00:00Z,27.8966,-93.5973,2.0,69.52156036,3.458569068,-99999.0,'11133222,11111222,99999999' 
TABS,ioos:station:wmo:42047:1,2016-01-04T11:30:00Z,27.8966,-93.5973,2.0,147.3078818,2.388346708,-99999.0,'11133222,11111222,99999999' 
TABS,ioos:station:wmo:42047:1,2016-01-04T12:00:00Z,27.8966,-93.5973,2.0,98.59991194,3.276842993,-99999.0,'11133222,11111222,99999999' 
TABS,ioos:station:wmo:42047:1,2016-01-04T12:30:00Z,27.8966,-93.5973,2.0,92.7134031,2.112368339,-99999.0,'11133222,11111222,99999999' 
TABS,ioos:station:wmo:42047:1,2016-01-04T13:00:00Z,27.8966,-93.5973,2.0,35.31846942,2.733002012,-99999.0,'11133222,11111222,99999999' 
TABS,ioos:station:wmo:42047:1,2016-01-04T13:30:00Z,27.8966,-93.5973,2.0,73.96405546,1.737613306,-99999.0,'11133222,11111222,99999999' 
TABS,ioos:station:wmo:42047:1,2016-01-04T14:00:00Z,27.8966,-93.5973,2.0,121.9111926,5.80773622,-99999.0,'11133222,11111222,99999999' 
TABS,ioos:station:wmo:42047:1,2016-01-04T14:30:00Z,27.8966,-93.5973,2.0,95.98766201,8.436023945,-99999.0,'11133222,11111222,99999999' 
TABS,ioos:station:wmo:42047:1,2016-01-04T15:00:00Z,27.8966,-93.5973,2.0,115.1328962,1.789413312,-99999.0,'11133222,11111222,99999999' 
TABS,ioos:station:wmo:42047:1,2016-01-04T15:30:00Z,27.8966,-93.5973,2.0,93.77445151,2.886260556,-99999.0,'11133222,11111222,99999999' 
TABS,ioos:station:wmo:42047:1,2016-01-04T16:00:00Z,27.8966,-93.5973,2.0,101.1817281,7.013130542,-99999.0,'11133222,11111222,99999999' 